Preview of NWS' New Version of Forecast
This preview is not operational and should not be used for support decisions.

Regional Weather Roundup (RWR)

Issued by National Weather Service (NWS)

                            
000
ASUS43 KLSX 182107
RWRMO 

WEATHER SUMMARY FOR MISSOURI
NATIONAL WEATHER SERVICE SPRINGFIELD MO
400 PM CDT THU JUL 18 2019

NOTE: "FAIR" INDICATES FEW OR NO CLOUDS BELOW 12,000 FEET WITH NO
       SIGNIFICANT WEATHER AND/OR OBSTRUCTIONS TO VISIBILITY.
       CURRENT SKY AND/OR WEATHER CONDITIONS ARE NOT AVAILABLE FOR
       CHILLICOTHE AND FARMINGTON.

MOZ001>031-035>038-043-044-053-054-182200-
...NORTHERN AND WESTERN MISSOURI...
  
CITY           SKY/WX    TMP DP  RH WIND       PRES   REMARKS
KANSAS CTY INT FAIR      95  77  55 S20G30    29.78F HX 109           
KANSAS C DTWN  FAIR      96  74  48 S18G28    29.77F HX 107           
LEE'S SUMMIT   LGT RAIN  94  74  52 S21G32    29.81F HX 104           
ST JOSEPH      FAIR      94  76  55 S16G31    29.74F HX 106           
CHILLICOTHE      N/A     96  75  50 S14G30    29.78F HX 108           
KIRKSVILLE     FAIR      93  75  55 SW10G23   29.80F HX 104           
     
$$
MOZ066>068-077>081-088>096-101>105-182200-
...SOUTHWEST MISSOURI...
  
CITY           SKY/WX    TMP DP  RH WIND       PRES   REMARKS
SPRINGFIELD    FAIR      93  72  50 S16       29.91F HX 101           
JOPLIN         FAIR      92  74  55 S16G25    29.88F HX 101           
BRANSON        MOSUNNY   91  73  55 SW8       29.97F HX 100           
               
$$
MOZ032>034-039>042-045>050-055>058-069>072-182200-
...CENTRAL MISSOURI...  
  
CITY           SKY/WX    TMP DP  RH WIND       PRES   REMARKS
COLUMBIA       FAIR      93  75  55 S18G25    29.85F HX 104           
ROLLA          FAIR      91  74  57 S14G22    29.91F HX 100           
SEDALIA        FAIR      90  73  57 S17G28    29.85F HX  98           
WHITEMAN AFB   MOSUNNY   92  77  60 S20       29.79F HX 106           
WARRENSBURG    FAIR      91  73  55 S14G23    29.82F HX 100           
OSAGE BEACH    PTSUNNY   95  75  52 S9        29.89F HX 107           
               
$$
MOZ051-052-059>065-182200-
...EAST CENTRAL MISSOURI...
  
CITY           SKY/WX    TMP DP  RH WIND       PRES   REMARKS
ST LOUIS INTL  FAIR      95  74  50 S12G20    29.87F HX 105           
SPIRIT OF STL  FAIR      93  76  57 S10       29.86F HX 105           
ST CHARLES       N/A    N/A N/A N/A MISG      29.85F                  
                   
$$
MOZ072>076-082>087-097>100-106>115-182200-
...SOUTH CENTRAL AND SOUTHEAST MISSOURI...
  
CITY           SKY/WX    TMP DP  RH WIND       PRES   REMARKS
CAPE GIRARDEAU FAIR      89  78  70 S9        29.93F HX 103           
FARMINGTON     FAIR      92  78  63 S9        29.94F HX 107           
POPLAR BLUFF   FAIR      90  81  74 S9        29.93F HX 109           
WEST PLAINS    FAIR      91  75  59 S9        29.97F HX 101           
                                       
$$